| time (UTC) | temp C | wind direction | speed KPH | gust KPH | rain 1hr cm | rain 24hr cm | rain mn cm | humidity % | barometer mb |
| 20260507070013 | 6 | 325 | 6.4 | 14.5 | 0.00 | 0.00 | 0.00 | 51 | 1016.1 |
| 20260507064509 | 6 | 360 | 3.2 | 9.7 | 0.00 | 0.00 | 0.00 | 53 | 1016.1 |
| 20260507063005 | 5 | 39 | 4.8 | 12.9 | 0.00 | 0.00 | 0.00 | 54 | 1016.1 |
| 20260507061502 | 5 | 5 | 3.2 | 8.0 | 0.00 | 0.00 | 0.00 | 54 | 1015.9 |
| 20260507060103 | 5 | 360 | 6.4 | 14.5 | 0.00 | 0.00 | 0.00 | 54 | 1015.7 |
| 20260507054613 | 4 | 9 | 3.2 | 9.7 | 0.00 | 0.00 | 0.00 | 56 | 1015.7 |
| 20260507053103 | 3 | 344 | 4.8 | 8.0 | 0.00 | 0.00 | 0.00 | 57 | 1015.6 |
| 20260507051555 | 3 | 326 | 4.8 | 9.7 | 0.00 | 0.00 | 0.00 | 58 | 1015.5 |
| 20260507050053 | 2 | 333 | 4.8 | 9.7 | 0.00 | 0.00 | 0.00 | 59 | 1015.4 |
| 20260507044554 | 2 | 321 | 3.2 | 6.4 | 0.00 | 0.00 | 0.00 | 61 | 1015.3 |
| 20260507043046 | 1 | 306 | 3.2 | 9.7 | 0.00 | 0.00 | 0.00 | 63 | 1015.2 |
| 20260507041558 | 0 | 316 | 1.6 | 6.4 | 0.00 | 0.00 | 0.00 | 66 | 1015.1 |
| 20260507040043 | 0 | 306 | 3.2 | 6.4 | 0.00 | 0.00 | 0.00 | 69 | 1015.0 |
| 20260507034542 | 0 | 295 | 3.2 | 6.4 | 0.00 | 0.00 | 0.00 | 71 | 1014.9 |
| 20260507033041 | -1 | 319 | 1.6 | 6.4 | 0.00 | 0.00 | 0.00 | 72 | 1014.7 |
| 20260507031541 | -1 | 309 | 1.6 | 4.8 | 0.00 | 0.00 | 0.00 | 72 | 1014.7 |
| 20260507030036 | 0 | 311 | 0.0 | 3.2 | 0.00 | 0.00 | 0.00 | 72 | 1014.6 |
| 20260507024537 | 0 | 311 | 0.0 | 1.6 | 0.00 | 0.00 | 0.00 | 70 | 1014.6 |
| 20260507023030 | 0 | 311 | 0.0 | 3.2 | 0.00 | 0.00 | 0.00 | 67 | 1014.5 |
| 20260507021534 | 0 | 317 | 1.6 | 6.4 | 0.00 | 0.00 | 0.00 | 67 | 1014.4 |
| 20260507020027 | 0 | 317 | 1.6 | 4.8 | 0.00 | 0.00 | 0.00 | 66 | 1014.3 |
| 20260507014529 | 0 | 319 | 3.2 | 8.0 | 0.00 | 0.00 | 0.00 | 67 | 1014.2 |
| 20260507013023 | 0 | 317 | 1.6 | 4.8 | 0.00 | 0.00 | 0.00 | 67 | 1014.1 |
| 20260507011523 | 0 | 309 | 0.0 | 3.2 | 0.00 | 0.00 | 0.00 | 66 | 1013.9 |
| 20260507010029 | 1 | 314 | 0.0 | 4.8 | 0.00 | 0.00 | 0.00 | 64 | 1013.9 |
| 20260507004518 | 1 | 316 | 0.0 | 4.8 | 0.00 | 0.00 | 0.00 | 60 | 1013.9 |
| 20260507003016 | 2 | 305 | 1.6 | 4.8 | 0.00 | 0.00 | 0.00 | 61 | 1013.8 |
| 20260507001516 | 1 | 324 | 3.2 | 8.0 | 0.00 | 0.00 | 0.00 | 60 | 1013.7 |
| 20260507000019 | 1 | 328 | 3.2 | 6.4 | 0.00 | 0.00 | 0.00 | 65 | 1013.8 |
| 20260506234510 | 1 | 317 | 0.0 | 3.2 | 0.00 | 0.00 | 0.00 | 64 | 1013.6 |
| 20260506233007 | 2 | 5 | 1.6 | 3.2 | 0.00 | 0.00 | 0.00 | 63 | 1013.6 |
| 20260506231505 | 2 | 5 | 0.0 | 1.6 | 0.00 | 0.00 | 0.00 | 60 | 1013.5 |
| 20260506230001 | 2 | 335 | 1.6 | 4.8 | 0.00 | 0.00 | 0.00 | 61 | 1013.3 |
| 20260506224600 | 2 | 350 | 0.0 | 3.2 | 0.00 | 0.00 | 0.00 | 60 | 1013.2 |
| 20260506223104 | 2 | 18 | 0.0 | 4.8 | 0.00 | 0.00 | 0.00 | 60 | 1013.1 |
| 20260506221602 | 2 | 304 | 0.0 | 4.8 | 0.00 | 0.00 | 0.00 | 64 | 1013.0 |
| 20260506220051 | 3 | 308 | 0.0 | 3.2 | 0.00 | 0.00 | 0.00 | 63 | 1012.9 |
| 20260506214551 | 3 | 299 | 1.6 | 6.4 | 0.00 | 0.00 | 0.00 | 62 | 1012.8 |
| 20260506213055 | 3 | 278 | 0.0 | 3.2 | 0.00 | 0.00 | 0.00 | 61 | 1012.7 |
| 20260506211554 | 4 | 319 | 0.0 | 4.8 | 0.00 | 0.00 | 0.00 | 61 | 1012.5 |
| 20260506210050 | 3 | 304 | 1.6 | 6.4 | 0.00 | 0.00 | 0.00 | 62 | 1012.3 |
| 20260506204549 | 3 | 329 | 0.0 | 4.8 | 0.00 | 0.00 | 0.00 | 63 | 1012.4 |
| 20260506203048 | 4 | 212 | 0.0 | 0.0 | 0.00 | 0.00 | 0.00 | 62 | 1012.3 |
| 20260506201550 | 5 | 212 | 0.0 | 0.0 | 0.00 | 0.00 | 0.00 | 60 | 1012.2 |
| 20260506200047 | 6 | 212 | 0.0 | 1.6 | 0.00 | 0.00 | 0.00 | 56 | 1012.1 |
| 20260506194548 | 7 | 298 | 0.0 | 1.6 | 0.00 | 0.00 | 0.00 | 51 | 1012.1 |
| 20260506193052 | 8 | 298 | 0.0 | 4.8 | 0.00 | 0.00 | 0.00 | 49 | 1012.1 |
| 20260506191546 | 8 | 216 | 1.6 | 6.4 | 0.00 | 0.00 | 0.00 | 45 | 1011.9 |
| 20260506190047 | 9 | 189 | 1.6 | 8.0 | 0.00 | 0.00 | 0.00 | 43 | 1011.7 |
| 20260506184546 | 9 | 217 | 1.6 | 11.3 | 0.00 | 0.00 | 0.00 | 41 | 1011.7 |
| 20260506183044 | 10 | 205 | 6.4 | 16.1 | 0.00 | 0.00 | 0.00 | 37 | 1011.6 |
| 20260506181557 | 11 | 247 | 8.0 | 16.1 | 0.00 | 0.00 | 0.00 | 35 | 1011.4 |
| 20260506180045 | 11 | 263 | 6.4 | 11.3 | 0.00 | 0.00 | 0.00 | 35 | 1011.4 |
| 20260506174542 | 11 | 228 | 3.2 | 12.9 | 0.00 | 0.00 | 0.00 | 35 | 1011.3 |
| 20260506173105 | 11 | 237 | 6.4 | 12.9 | 0.00 | 0.00 | 0.00 | 34 | 1011.1 |
| 20260506171543 | 11 | 248 | 6.4 | 16.1 | 0.00 | 0.00 | 0.00 | 33 | 1011.3 |
| 20260506170052 | 12 | 240 | 6.4 | 12.9 | 0.00 | 0.00 | 0.00 | 30 | 1011.3 |
| 20260506164540 | 13 | 219 | 4.8 | 11.3 | 0.00 | 0.00 | 0.00 | 28 | 1011.3 |
| 20260506163050 | 12 | 233 | 3.2 | 8.0 | 0.00 | 0.00 | 0.00 | 26 | 1011.4 |
| 20260506161540 | 13 | 286 | 3.2 | 12.9 | 0.00 | 0.00 | 0.00 | 25 | 1011.3 |
| 20260506160042 | 14 | 180 | 1.6 | 11.3 | 0.00 | 0.00 | 0.00 | 25 | 1011.2 |
| 20260506154538 | 14 | 180 | 6.4 | 12.9 | 0.00 | 0.00 | 0.00 | 26 | 1011.4 |
| 20260506153032 | 13 | 166 | 6.4 | 11.3 | 0.00 | 0.00 | 0.00 | 27 | 1011.6 |
| 20260506151532 | 13 | 243 | 6.4 | 11.3 | 0.00 | 0.00 | 0.00 | 23 | 1011.4 |
| 20260506150031 | 14 | 224 | 1.6 | 4.8 | 0.00 | 0.00 | 0.00 | 22 | 1011.7 |
| 20260506144528 | 13 | 220 | 1.6 | 17.7 | 0.00 | 0.00 | 0.00 | 20 | 1011.6 |
| 20260506143028 | 12 | 348 | 8.0 | 17.7 | 0.00 | 0.00 | 0.00 | 21 | 1011.6 |
| 20260506141525 | 13 | 218 | 8.0 | 16.1 | 0.00 | 0.00 | 0.00 | 24 | 1011.6 |
| 20260506140022 | 12 | 261 | 12.9 | 19.3 | 0.00 | 0.00 | 0.00 | 27 | 1011.8 |
| 20260506134522 | 11 | 232 | 6.4 | 17.7 | 0.00 | 0.00 | 0.00 | 29 | 1011.8 |
| 20260506133020 | 11 | 229 | 6.4 | 19.3 | 0.00 | 0.00 | 0.00 | 30 | 1011.8 |
| 20260506131521 | 11 | 205 | 8.0 | 17.7 | 0.00 | 0.00 | 0.00 | 31 | 1011.9 |
| 20260506130017 | 11 | 265 | 8.0 | 24.1 | 0.00 | 0.00 | 0.00 | 30 | 1011.9 |
| 20260506124517 | 12 | 255 | 9.7 | 22.5 | 0.00 | 0.00 | 0.00 | 30 | 1011.7 |
| 20260506123014 | 12 | 355 | 3.2 | 17.7 | 0.00 | 0.00 | 0.00 | 30 | 1011.9 |
| 20260506121513 | 11 | 217 | 11.3 | 25.7 | 0.00 | 0.00 | 0.00 | 30 | 1011.9 |
| 20260506120010 | 12 | 223 | 3.2 | 14.5 | 0.00 | 0.00 | 0.00 | 34 | 1012.1 |
| 20260506114508 | 11 | 167 | 4.8 | 14.5 | 0.00 | 0.00 | 0.00 | 33 | 1012.1 |
| 20260506113006 | 11 | 191 | 6.4 | 17.7 | 0.00 | 0.00 | 0.00 | 36 | 1012.2 |
| 20260506111504 | 11 | 226 | 14.5 | 24.1 | 0.00 | 0.00 | 0.00 | 37 | 1012.1 |
| 20260506110002 | 11 | 271 | 4.8 | 14.5 | 0.00 | 0.00 | 0.00 | 38 | 1012.3 |
| 20260506104636 | 10 | 346 | 3.2 | 14.5 | 0.00 | 0.00 | 0.00 | 36 | 1012.3 |
| 20260506103102 | 10 | 253 | 6.4 | 16.1 | 0.00 | 0.00 | 0.00 | 34 | 1012.4 |
| 20260506101555 | 9 | 329 | 9.7 | 16.1 | 0.00 | 0.00 | 0.00 | 35 | 1012.5 |
| 20260506100052 | 9 | 317 | 3.2 | 16.1 | 0.00 | 0.00 | 0.00 | 35 | 1012.4 |
| 20260506094550 | 8 | 347 | 6.4 | 14.5 | 0.00 | 0.00 | 0.00 | 38 | 1012.5 |
| 20260506093048 | 8 | 323 | 9.7 | 17.7 | 0.00 | 0.00 | 0.00 | 39 | 1012.7 |
| 20260506091546 | 8 | 162 | 8.0 | 14.5 | 0.00 | 0.00 | 0.00 | 42 | 1012.7 |
| 20260506090047 | 8 | 284 | 6.4 | 16.1 | 0.00 | 0.00 | 0.00 | 42 | 1012.8 |
| 20260506084541 | 7 | 84 | 0.0 | 6.4 | 0.00 | 0.00 | 0.00 | 44 | 1012.8 |
| 20260506083043 | 7 | 341 | 4.8 | 9.7 | 0.00 | 0.00 | 0.00 | 47 | 1012.9 |
| 20260506081537 | 7 | 178 | 1.6 | 11.3 | 0.00 | 0.00 | 0.00 | 46 | 1013.1 |
| 20260506073030 | 6 | 86 | 1.6 | 9.7 | 0.00 | 0.00 | 0.00 | 52 | 1013.1 |
| 20260506071527 | 5 | 108 | 1.6 | 9.7 | 0.00 | 0.00 | 0.00 | 52 | 1013.0 |